******** Week 362 almanac for PRN-1 ******** ID: 1 Health: 0 Eccentricity: 0.001619338989 Time of Applicability(s): 61440 Orbital Inclination(rad): 0.9581831228 Rate of Right Ascen(r/s): -7.771752296e-09 SQRT(A) (m 1/2): 5153.578125 Right Ascen at Week(rad): 2.887542816 Argument of Perigee(rad): 0.1078471635 Mean Anom(rad): 1.150854106 Af0(s): 0.000250219873 Af1(s/s): -7.275958e-12 week: 362 ******** Week 362 almanac for PRN-2 ******** ID: 2 Health: 0 Eccentricity: 0.0168800354 Time of Applicability(s): 61440 Orbital Inclination(rad): 0.963360308 Rate of Right Ascen(r/s): -7.646032773e-09 SQRT(A) (m 1/2): 5153.544434 Right Ascen at Week(rad): 2.725140465 Argument of Perigee(rad): -0.8041617149 Mean Anom(rad): 2.631096132 Af0(s): 4.59741333e-05 Af1(s/s): 7.275958e-12 week: 362 ******** Week 362 almanac for PRN-3 ******** ID: 3 Health: 0 Eccentricity: 0.006542682648 Time of Applicability(s): 61440 Orbital Inclination(rad): 0.9934886494 Rate of Right Ascen(r/s): -7.840326581e-09 SQRT(A) (m 1/2): 5153.574219 Right Ascen at Week(rad): -2.408550574 Argument of Perigee(rad): 1.203662219 Mean Anom(rad): -0.9601532549 Af0(s): 0.0004258259888 Af1(s/s): -1.455192e-11 week: 362 ******** Week 362 almanac for PRN-4 ******** ID: 4 Health: 0 Eccentricity: 0.003734588623 Time of Applicability(s): 61440 Orbital Inclination(rad): 0.9704669533 Rate of Right Ascen(r/s): -8.023191341e-09 SQRT(A) (m 1/2): 5153.678223 Right Ascen at Week(rad): -1.337966431 Argument of Perigee(rad): -2.874088277 Mean Anom(rad): 2.010005812 Af0(s): 3.843739014e-05 Af1(s/s): 3.637979e-12 week: 362 ******** Week 362 almanac for PRN-5 ******** ID: 5 Health: 0 Eccentricity: 0.005424499512 Time of Applicability(s): 61440 Orbital Inclination(rad): 0.9800483412 Rate of Right Ascen(r/s): -7.966046103e-09 SQRT(A) (m 1/2): 5153.663086 Right Ascen at Week(rad): -2.468456344 Argument of Perigee(rad): 1.417935292 Mean Anom(rad): 2.679059622 Af0(s): -0.0001823891846 Af1(s/s): 0 week: 362 ******** Week 362 almanac for PRN-6 ******** ID: 6 Health: 0 Eccentricity: 0.003843784332 Time of Applicability(s): 61440 Orbital Inclination(rad): 0.9870351443 Rate of Right Ascen(r/s): -7.486026109e-09 SQRT(A) (m 1/2): 5153.60498 Right Ascen at Week(rad): 2.838449064 Argument of Perigee(rad): -0.5553823135 Mean Anom(rad): 0.3484566941 Af0(s): -0.0004838589111 Af1(s/s): 0 week: 362 ******** Week 362 almanac for PRN-7 ******** ID: 7 Health: 0 Eccentricity: 0.02056503296 Time of Applicability(s): 61440 Orbital Inclination(rad): 0.9513341383 Rate of Right Ascen(r/s): -7.760323248e-09 SQRT(A) (m 1/2): 5153.574707 Right Ascen at Week(rad): -0.3293096477 Argument of Perigee(rad): -1.988191152 Mean Anom(rad): -0.5062833185 Af0(s): -0.0001273709595 Af1(s/s): -3.637979e-12 week: 362 ******** Week 362 almanac for PRN-8 ******** ID: 8 Health: 0 Eccentricity: 0.01159095764 Time of Applicability(s): 61440 Orbital Inclination(rad): 0.9430290704 Rate of Right Ascen(r/s): -8.206056101e-09 SQRT(A) (m 1/2): 5153.629883 Right Ascen at Week(rad): 1.717625179 Argument of Perigee(rad): 0.5280991019 Mean Anom(rad): 2.315781438 Af0(s): 0.0003775908325 Af1(s/s): -7.275958e-12 week: 362 ******** Week 362 almanac for PRN-9 ******** ID: 9 Health: 0 Eccentricity: 0.003345012665 Time of Applicability(s): 61440 Orbital Inclination(rad): 0.9646306358 Rate of Right Ascen(r/s): -8.103194673e-09 SQRT(A) (m 1/2): 5153.719238 Right Ascen at Week(rad): -1.402322843 Argument of Perigee(rad): 2.066624159 Mean Anom(rad): 2.906614587 Af0(s): 0.0006059541504 Af1(s/s): -3.637979e-12 week: 362 ******** Week 362 almanac for PRN-10 ******** ID: 10 Health: 0 Eccentricity: 0.01092910767 Time of Applicability(s): 61440 Orbital Inclination(rad): 0.9930212646 Rate of Right Ascen(r/s): -7.840326581e-09 SQRT(A) (m 1/2): 5153.603516 Right Ascen at Week(rad): -2.411060145 Argument of Perigee(rad): -2.255791404 Mean Anom(rad): -1.951424673 Af0(s): -0.0004665244019 Af1(s/s): 0 week: 362 ******** Week 362 almanac for PRN-11 ******** ID: 11 Health: 0 Eccentricity: 0.002206802368 Time of Applicability(s): 61440 Orbital Inclination(rad): 0.9639115823 Rate of Right Ascen(r/s): -7.703178011e-09 SQRT(A) (m 1/2): 5153.537109 Right Ascen at Week(rad): 2.856950835 Argument of Perigee(rad): -2.307880463 Mean Anom(rad): 1.45542719 Af0(s): -0.0003210652588 Af1(s/s): 1.455192e-11 week: 362 ******** Week 362 almanac for PRN-12 ******** ID: 12 Health: 0 Eccentricity: 0.009003162384 Time of Applicability(s): 61440 Orbital Inclination(rad): 0.9591418608 Rate of Right Ascen(r/s): -8.000333246e-09 SQRT(A) (m 1/2): 5153.70752 Right Ascen at Week(rad): 0.788209588 Argument of Perigee(rad): 1.564365293 Mean Anom(rad): -1.179197173 Af0(s): -0.0004800905395 Af1(s/s): 0 week: 362 ******** Week 362 almanac for PRN-13 ******** ID: 13 Health: 0 Eccentricity: 0.01002407074 Time of Applicability(s): 61440 Orbital Inclination(rad): 0.9761175154 Rate of Right Ascen(r/s): -7.920329913e-09 SQRT(A) (m 1/2): 5153.625 Right Ascen at Week(rad): -1.22699176 Argument of Perigee(rad): 0.9958183082 Mean Anom(rad): 2.073914313 Af0(s): 0.0005403844849 Af1(s/s): 0 week: 362 ******** Week 362 almanac for PRN-14 ******** ID: 14 Health: 0 Eccentricity: 0.006786346436 Time of Applicability(s): 61440 Orbital Inclination(rad): 0.942525733 Rate of Right Ascen(r/s): -8.160339911e-09 SQRT(A) (m 1/2): 5153.592285 Right Ascen at Week(rad): 0.7333626592 Argument of Perigee(rad): -2.745468332 Mean Anom(rad): -1.326945439 Af0(s): 0.0005840975952 Af1(s/s): 0 week: 362 ******** Week 362 almanac for PRN-15 ******** ID: 15 Health: 0 Eccentricity: 0.01662015915 Time of Applicability(s): 61440 Orbital Inclination(rad): 0.9425197409 Rate of Right Ascen(r/s): -8.400349908e-09 SQRT(A) (m 1/2): 5153.643066 Right Ascen at Week(rad): -1.546739119 Argument of Perigee(rad): 1.504307099 Mean Anom(rad): 1.319286395 Af0(s): 0.000312021167 Af1(s/s): 3.637979e-12 week: 362 ******** Week 362 almanac for PRN-16 ******** ID: 16 Health: 0 Eccentricity: 0.01503753662 Time of Applicability(s): 61440 Orbital Inclination(rad): 0.9582610203 Rate of Right Ascen(r/s): -8.046049436e-09 SQRT(A) (m 1/2): 5153.594238 Right Ascen at Week(rad): 0.8051638957 Argument of Perigee(rad): 0.9312903727 Mean Anom(rad): -2.935104085 Af0(s): 0.000178620813 Af1(s/s): 7.275958e-12 week: 362 ******** Week 362 almanac for PRN-17 ******** ID: 17 Health: 0 Eccentricity: 0.0126414299 Time of Applicability(s): 61440 Orbital Inclination(rad): 0.958728405 Rate of Right Ascen(r/s): -7.988904198e-09 SQRT(A) (m 1/2): 5153.541992 Right Ascen at Week(rad): 1.822569538 Argument of Perigee(rad): -1.119392145 Mean Anom(rad): 2.255088454 Af0(s): -7.009171143e-05 Af1(s/s): -1.091394e-11 week: 362 ******** Week 362 almanac for PRN-18 ******** ID: 18 Health: 0 Eccentricity: 0.005773067474 Time of Applicability(s): 61440 Orbital Inclination(rad): 0.9719889499 Rate of Right Ascen(r/s): -7.634603726e-09 SQRT(A) (m 1/2): 5153.594727 Right Ascen at Week(rad): 2.833235926 Argument of Perigee(rad): -2.867010843 Mean Anom(rad): 0.2704787131 Af0(s): -0.0003172968872 Af1(s/s): 1.091394e-11 week: 362 ******** Week 362 almanac for PRN-19 ******** ID: 19 Health: 0 Eccentricity: 0.01117706299 Time of Applicability(s): 61440 Orbital Inclination(rad): 0.9579074856 Rate of Right Ascen(r/s): -7.988904198e-09 SQRT(A) (m 1/2): 5153.666016 Right Ascen at Week(rad): 1.86646663 Argument of Perigee(rad): 2.937061259 Mean Anom(rad): -2.22706297 Af0(s): 0.0005486749023 Af1(s/s): 0 week: 362 ******** Week 362 almanac for PRN-20 ******** ID: 20 Health: 0 Eccentricity: 0.002268791199 Time of Applicability(s): 61440 Orbital Inclination(rad): 0.9600346856 Rate of Right Ascen(r/s): -8.171768958e-09 SQRT(A) (m 1/2): 5153.703613 Right Ascen at Week(rad): -1.396771899 Argument of Perigee(rad): -1.991723502 Mean Anom(rad): -1.201285223 Af0(s): 4.220576172e-05 Af1(s/s): 2.182787e-11 week: 362 ******** Week 362 almanac for PRN-21 ******** ID: 21 Health: 0 Eccentricity: 0.0007681846619 Time of Applicability(s): 61440 Orbital Inclination(rad): 0.9628869311 Rate of Right Ascen(r/s): -8.183198006e-09 SQRT(A) (m 1/2): 5153.718262 Right Ascen at Week(rad): -2.402691786 Argument of Perigee(rad): -0.2915503511 Mean Anom(rad): -1.50368317 Af0(s): 0.0003233262817 Af1(s/s): 3.637979e-12 week: 362 ******** Week 362 almanac for PRN-22 ******** ID: 22 Health: 0 Eccentricity: 0.0120639801 Time of Applicability(s): 61440 Orbital Inclination(rad): 0.9577037538 Rate of Right Ascen(r/s): -8.046049436e-09 SQRT(A) (m 1/2): 5153.563965 Right Ascen at Week(rad): 0.8085191041 Argument of Perigee(rad): -0.9933705303 Mean Anom(rad): 2.902788248 Af0(s): -2.637860107e-05 Af1(s/s): 7.275958e-12 week: 362 ******** Week 362 almanac for PRN-23 ******** ID: 23 Health: 0 Eccentricity: 0.006048202515 Time of Applicability(s): 61440 Orbital Inclination(rad): 0.9880238428 Rate of Right Ascen(r/s): -7.863184676e-09 SQRT(A) (m 1/2): 5153.658691 Right Ascen at Week(rad): -2.443204084 Argument of Perigee(rad): -2.739769833 Mean Anom(rad): -0.8714344124 Af0(s): 0.0004936566772 Af1(s/s): 3.637979e-12 week: 362 ******** Week 362 almanac for PRN-24 ******** ID: 24 Health: 0 Eccentricity: 0.01792049408 Time of Applicability(s): 61440 Orbital Inclination(rad): 0.9352992454 Rate of Right Ascen(r/s): -7.943188008e-09 SQRT(A) (m 1/2): 5153.600098 Right Ascen at Week(rad): -0.4380035716 Argument of Perigee(rad): 1.137029928 Mean Anom(rad): 0.4755673756 Af0(s): -6.406231689e-05 Af1(s/s): 1.818989e-11 week: 362 ******** Week 362 almanac for PRN-25 ******** ID: 25 Health: 0 Eccentricity: 0.01292705536 Time of Applicability(s): 61440 Orbital Inclination(rad): 0.9475770838 Rate of Right Ascen(r/s): -8.080336578e-09 SQRT(A) (m 1/2): 5153.658691 Right Ascen at Week(rad): 0.6942375354 Argument of Perigee(rad): 1.159028846 Mean Anom(rad): -1.306878977 Af0(s): 0.0003451828369 Af1(s/s): -3.637979e-12 week: 362 ******** Week 362 almanac for PRN-26 ******** ID: 26 Health: 0 Eccentricity: 0.01100921631 Time of Applicability(s): 61440 Orbital Inclination(rad): 0.9283963318 Rate of Right Ascen(r/s): -8.286059433e-09 SQRT(A) (m 1/2): 5153.660645 Right Ascen at Week(rad): 0.6194645856 Argument of Perigee(rad): 0.7113247931 Mean Anom(rad): -2.12733025 Af0(s): -0.000269061731 Af1(s/s): -3.637979e-12 week: 362 ******** Week 362 almanac for PRN-27 ******** ID: 27 Health: 0 Eccentricity: 0.01437664032 Time of Applicability(s): 61440 Orbital Inclination(rad): 0.9521370814 Rate of Right Ascen(r/s): -8.091765626e-09 SQRT(A) (m 1/2): 5153.60791 Right Ascen at Week(rad): 1.749778479 Argument of Perigee(rad): 0.8848578678 Mean Anom(rad): 2.418998196 Af0(s): -5.50182251e-05 Af1(s/s): -1.091394e-11 week: 362 ******** Week 362 almanac for PRN-28 ******** ID: 28 Health: 0 Eccentricity: 0.0004272460937 Time of Applicability(s): 61440 Orbital Inclination(rad): 0.9622637514 Rate of Right Ascen(r/s): -7.657461821e-09 SQRT(A) (m 1/2): 5153.760254 Right Ascen at Week(rad): -0.3549030835 Argument of Perigee(rad): -0.08068753928 Mean Anom(rad): -0.1058330647 Af0(s): -0.0004559729614 Af1(s/s): 7.275958e-12 week: 362 ******** Week 362 almanac for PRN-29 ******** ID: 29 Health: 0 Eccentricity: 0.003400325775 Time of Applicability(s): 61440 Orbital Inclination(rad): 0.961388903 Rate of Right Ascen(r/s): -7.954617056e-09 SQRT(A) (m 1/2): 5153.696289 Right Ascen at Week(rad): 1.839337341 Argument of Perigee(rad): 2.743522393 Mean Anom(rad): 2.276547707 Af0(s): -0.000283381543 Af1(s/s): 7.275958e-12 week: 362 ******** Week 362 almanac for PRN-30 ******** ID: 30 Health: 0 Eccentricity: 0.008112430572 Time of Applicability(s): 61440 Orbital Inclination(rad): 0.9365935416 Rate of Right Ascen(r/s): -7.908900866e-09 SQRT(A) (m 1/2): 5153.70459 Right Ascen at Week(rad): -0.3384925601 Argument of Perigee(rad): -2.310643576 Mean Anom(rad): -0.6910343768 Af0(s): 0.0001213415649 Af1(s/s): 1.455192e-11 week: 362 ******** Week 362 almanac for PRN-31 ******** ID: 31 Health: 0 Eccentricity: 0.01084041595 Time of Applicability(s): 61440 Orbital Inclination(rad): 0.955103177 Rate of Right Ascen(r/s): -7.714607058e-09 SQRT(A) (m 1/2): 5153.53125 Right Ascen at Week(rad): -0.3050449628 Argument of Perigee(rad): 0.9376757175 Mean Anom(rad): -1.597867193 Af0(s): -0.0001273709595 Af1(s/s): 3.637979e-12 week: 362 ******** Week 362 almanac for PRN-32 ******** ID: 32 Health: 0 Eccentricity: 0.009376049042 Time of Applicability(s): 61440 Orbital Inclination(rad): 0.9676746289 Rate of Right Ascen(r/s): -8.057478483e-09 SQRT(A) (m 1/2): 5153.687012 Right Ascen at Week(rad): -1.385272287 Argument of Perigee(rad): -1.993598659 Mean Anom(rad): 2.987700227 Af0(s): -3.768371582e-05 Af1(s/s): 1.818989e-11 week: 362